RH
67 67 66 66 66 68 69 70 72 72 71 69 69 69 70 70 69 65 64 76 71 72 72 69 66 63 74 44 42 24 33 32 25 43 66 73 86 81 88 81 73 80 70 64 61 61 58
67 66 66 66 68 69 70 71 73 73 70 70 69 70 71 70 68 62 64 73 72 72 73 70 65 68 53 45 33 21 22 28 25 34 49 70 73 73 75 77 77 64 58 61 54 51 44
66 66 66 67 68 70 71 72 73 72 71 69 69 71 71 70 65 60 61 68 74 72 70 67 64 42 30 41 22 18 18 26 23 27 51 53 56 75 75 81 67 68 69 60 58 59 57
66 66 66 67 69 70 71 72 72 72 71 70 70 71 70 69 64 62 62 62 67 68 71 66 66 49 42 35 22 17 18 25 23 22 43 45 57 71 76 71 73 79 80 89 69 66 70
66 66 67 68 69 70 71 71 72 72 71 71 70 71 70 69 65 67 70 62 64 67 63 62 40 26 31 30 21 21 20 27 28 24 31 38 65 81 57 78 87 75 87 67 53 60 62
65 66 67 69 70 71 71 71 72 72 71 70 70 71 69 68 68 67 66 59 55 41 31 27 21 29 26 32 25 23 21 25 29 32 30 37 62 53 55 78 99 94 90 71 69 61 68
65 66 68 70 71 71 71 72 71 71 71 71 71 72 67 66 67 58 53 37 47 51 33 32 33 33 33 26 28 28 29 29 32 34 43 40 51 56 47 64 86 95 98 92 46 41 76
64 66 67 68 70 71 72 71 71 70 70 70 71 71 64 63 49 51 64 72 68 50 42 30 28 24 25 22 30 25 27 36 32 40 40 44 38 34 45 53 47 45 86 62 48 35 40
64 65 68 68 71 71 72 72 70 70 70 71 70 70 69 70 53 51 58 67 69 71 53 38 30 29 27 27 29 28 30 38 37 41 43 39 34 30 46 51 49 48 74 58 65 49 44
64 65 68 69 71 73 72 71 70 69 69 70 70 68 69 64 48 49 56 49 66 74 53 40 36 29 24 34 32 26 32 32 34 43 42 41 35 42 54 50 42 48 33 44 52 59 63
66 65 67 69 71 72 71 70 69 68 68 70 70 68 66 50 47 52 47 51 72 78 48 42 34 27 28 29 28 34 36 36 40 39 36 43 44 39 43 34 38 44 41 47 40 48 66
66 67 67 68 71 71 70 70 68 68 68 70 70 70 65 44 50 50 51 78 83 52 61 43 38 41 34 32 33 39 45 39 43 41 38 44 38 38 43 30 40 40 46 44 47 70 93
68 70 68 68 71 70 70 69 68 67 67 68 68 69 52 37 49 49 66 92 36 47 41 44 43 44 38 37 40 41 56 65 70 65 66 48 36 41 36 41 41 50 71 86 78 88 84
71 70 70 70 69 69 68 67 67 66 66 68 69 66 42 33 47 57 71 34 27 51 54 50 45 40 42 47 44 47 48 74 64 72 80 86 66 48 32 47 60 58 63 96 97 88 89
73 70 69 69 68 67 65 66 65 66 66 68 65 59 40 40 49 66 44 58 60 61 51 52 42 44 50 56 52 50 83 91 70 70 85 97 74 40 35 48 57 72 86 75 97 86 93
73 72 70 67 67 66 65 65 66 66 64 68 61 53 42 38 59 54 60 60 58 52 50 48 53 54 78 68 52 63 83 73 60 59 66 79 97 48 47 44 53 70 59 85 87 99 97
73 73 71 66 66 64 66 64 66 63 65 65 58 49 35 50 49 55 67 64 55 47 48 52 62 67 76 68 67 74 89 68 63 57 69 92 87 69 58 73 80 63 85 84 94 97 97
74 72 72 66 65 63 66 65 65 61 67 65 54 35 35 46 48 73 75 58 44 51 50 56 62 59 70 62 66 82 84 74 56 55 81 83 97 98 90 49 48 58 87 95 96 92 95
74 74 73 67 65 63 65 65 65 59 69 70 51 53 52 41 53 73 62 51 46 50 54 54 62 55 54 59 66 67 66 54 44 52 87 82 88 99 85 92 69 76 72 84 94 98 99
75 74 71 68 65 62 65 63 65 58 61 68 70 58 54 64 60 66 68 60 56 52 55 54 60 56 60 67 74 83 63 57 53 48 49 73 100 90 95 90 93 94 68 62 84 100 100
76 75 72 69 64 62 62 61 63 59 61 68 75 83 64 70 64 74 71 60 55 55 58 59 67 71 81 94 79 75 70 72 49 50 51 75 65 97 98 91 87 88 73 78 91 93 98
78 79 72 70 65 65 57 62 59 59 62 78 82 85 84 85 69 70 72 74 58 54 68 72 82 80 81 94 69 81 97 93 87 59 70 83 37 98 100 85 83 97 87 90 88 88 95
79 80 72 71 67 62 58 61 60 57 62 80 83 72 70 68 77 79 83 68 56 65 63 67 82 85 89 71 76 85 87 87 82 63 65 84 93 99 100 96 96 89 88 90 88 93 90
80 82 74 72 69 59 62 59 63 63 61 74 79 77 92 91 81 65 60 51 55 58 82 79 66 81 72 69 72 80 91 91 81 81 80 86 100 100 100 94 95 73 91 86 92 89 91
85 81 77 74 67 59 64 60 64 65 68 78 82 78 94 97 70 55 55 64 68 78 82 72 62 69 74 90 97 98 95 75 84 96 74 85 100 100 99 100 79 75 92 79 69 66 88
85 82 79 75 66 62 65 63 59 59 61 72 73 82 89 91 84 67 75 75 86 93 84 70 66 71 76 97 97 93 85 74 62 67 70 82 91 86 95 100 97 76 92 94 82 82 75
84 83 82 74 64 63 67 65 63 59 56 66 72 73 72 96 90 84 82 84 84 89 87 83 84 88 82 98 96 94 93 80 60 53 58 76 84 77 100 96 76 78 97 82 52 58 78
82 85 81 74 64 64 71 68 64 56 55 62 62 66 59 96 89 78 81 85 87 91 88 88 88 92 97 92 90 91 94 96 82 78 66 53 65 87 95 94 60 86 97 62 61 93 87
86 85 80 70 67 69 70 67 63 59 54 52 49 42 49 85 93 76 81 81 79 82 92 100 82 95 91 95 97 94 89 96 84 58 87 72 63 68 66 64 77 88 66 75 88 73 86
Wind_Speed
8 9 9 10 10 11 12 13 14 16 17 17 17 18 18 18 18 17 15 12 14 12 9 9 9 4 1 8 6 10 20 15 8 5 3 1 1 1 3 3 3 9 13 11 13 13 13
7 8 9 9 10 10 11 13 14 15 16 17 18 18 18 18 17 16 14 11 13 14 14 10 5 3 4 11 10 12 11 9 6 5 1 3 3 2 4 4 2 6 9 8 8 11 10
6 7 8 8 9 10 12 13 14 15 17 17 18 19 18 18 16 17 14 9 9 10 9 7 4 5 26 7 7 10 9 7 5 2 2 2 2 1 2 4 2 4 10 8 7 8 4
5 7 7 8 9 10 11 12 13 15 17 18 18 18 17 18 17 18 15 8 7 6 4 3 1 4 9 2 7 20 15 9 8 4 2 5 2 1 2 4 6 5 2 4 8 16 11
6 6 7 7 8 10 11 12 14 15 16 18 18 17 17 17 16 16 13 5 6 1 2 7 6 7 5 8 19 12 9 9 8 9 3 2 4 6 9 6 4 10 5 11 11 9 10
5 6 6 7 8 9 11 12 13 15 16 18 18 17 15 15 16 15 9 3 11 8 5 2 5 7 8 5 8 11 11 15 5 7 8 10 7 6 7 9 2 6 4 5 6 5 12
3 5 6 7 8 9 11 12 13 15 16 18 19 16 15 13 13 14 4 4 6 9 12 10 3 6 2 5 4 10 5 5 9 9 7 8 12 6 6 5 2 3 1 3 4 4 6
0 2 3 6 7 9 9 11 12 14 16 18 19 18 16 11 8 12 5 5 2 6 8 6 6 7 2 3 5 13 9 8 12 13 7 7 11 6 5 5 6 6 2 5 5 10 5
1 2 3 4 7 10 10 11 12 14 16 17 18 17 18 13 7 7 5 3 4 2 7 2 3 5 8 4 7 15 7 5 10 10 7 8 5 7 7 8 12 7 3 5 7 5 6
2 1 2 4 7 8 10 11 12 14 15 16 18 17 18 5 5 1 3 7 5 2 6 9 7 7 14 2 8 8 8 5 8 7 5 5 7 5 5 4 8 4 5 7 9 8 6
4 2 0 2 5 8 9 11 13 14 15 15 16 15 15 10 4 4 4 4 2 4 3 4 4 3 6 8 4 14 5 7 6 5 6 3 6 5 5 7 7 8 7 9 13 14 1
5 3 1 2 4 8 9 11 13 14 15 15 15 14 13 4 4 1 3 3 3 4 2 4 3 5 5 6 4 3 9 8 3 4 5 4 5 4 1 12 4 10 7 11 4 2 2
7 5 2 0 4 6 9 10 13 14 15 15 13 10 4 2 2 3 2 3 4 7 2 4 3 4 3 6 7 7 9 13 6 5 7 8 7 6 2 10 10 7 5 4 5 4 4
10 7 5 2 3 5 7 10 13 14 16 16 11 4 3 3 1 3 4 4 5 1 1 2 2 2 5 8 4 7 4 4 10 6 2 4 5 6 11 3 6 11 2 3 5 3 7
11 8 5 2 4 4 6 11 14 15 16 16 6 2 1 3 3 4 5 7 2 2 2 2 3 5 4 4 3 7 5 3 4 5 4 2 5 11 3 3 5 6 3 1 4 3 2
12 9 6 3 4 5 8 11 13 16 15 11 2 2 3 7 4 5 7 5 3 2 2 3 2 1 3 4 6 6 4 4 5 4 2 4 5 3 6 5 8 5 4 4 2 4 4
13 11 7 4 1 3 7 10 13 16 16 2 3 3 4 7 5 8 5 3 4 3 3 3 2 3 3 3 1 2 4 3 5 7 4 3 4 7 4 6 2 5 5 5 2 0 3
13 11 8 4 2 3 7 9 12 15 15 6 3 1 4 4 7 3 3 7 5 3 6 4 4 4 3 2 2 2 3 1 6 3 2 2 4 4 2 4 8 5 3 4 4 5 1
16 14 11 7 4 1 6 8 10 11 10 3 3 1 3 4 5 2 2 4 4 3 2 2 2 3 2 3 4 1 4 4 6 5 2 3 2 4 3 3 1 5 2 1 3 1 4
16 14 11 9 6 1 4 7 8 9 6 5 4 2 5 5 2 7 6 4 5 4 3 5 3 4 5 2 3 2 1 3 3 6 10 3 2 7 6 4 2 3 4 4 1 1 2
17 15 13 10 6 1 3 4 7 8 5 5 3 2 1 2 2 5 5 3 6 5 2 4 2 3 7 3 2 3 2 3 3 8 5 5 3 1 3 1 3 1 2 5 2 4 4
18 15 13 11 7 3 1 3 6 5 6 5 5 5 3 2 3 6 3 4 5 4 4 2 6 4 5 6 7 8 4 2 3 4 4 4 2 3 4 2 2 2 5 4 4 2 5
20 17 14 12 7 4 2 3 4 2 6 3 1 3 5 3 3 5 5 6 6 9 4 3 8 5 4 5 4 3 4 3 5 5 1 4 3 4 5 1 2 6 6 3 5 4 6
21 18 16 13 9 5 3 2 2 3 5 4 3 5 5 2 3 4 6 3 8 5 8 2 5 6 4 12 10 7 7 6 7 3 2 4 4 2 3 4 4 6 3 5 7 10 8
21 19 16 14 10 7 5 4 6 7 9 4 2 4 5 3 4 4 8 6 6 4 3 5 2 4 10 5 5 4 4 5 3 2 1 3 5 2 4 3 6 4 4 5 5 8 7
23 20 18 14 11 9 8 7 7 9 10 5 3 1 4 9 6 5 5 4 6 4 3 3 3 4 4 3 3 5 4 3 3 5 5 4 5 6 4 4 6 7 3 4 5 5 7
22 20 17 14 12 11 10 7 7 8 8 5 3 3 5 6 3 3 5 7 6 4 4 4 4 2 3 2 3 4 3 4 2 5 5 2 4 5 2 3 10 6 6 4 8 9 6
23 20 17 13 12 11 12 9 11 12 9 5 3 4 5 4 1 1 2 5 4 2 6 5 5 2 2 2 4 4 4 5 3 4 6 7 6 4 3 3 9 8 5 8 8 2 5
22 20 16 14 13 12 11 12 9 10 9 6 4 4 7 8 3 1 1 1 2 4 7 1 3 4 5 5 1 4 3 3 3 4 2 2 8 7 10 9 5 14 8 10 5 6 6
Wind_Direction
19 17 14 23 20 23 14 10 6 359 356 356 355 354 352 350 349 349 355 356 16 29 61 109 114 117 152 58 41 304 336 337 345 13 143 183 177 196 246 316 332 258 271 281 298 286 280
21 16 13 14 19 16 19 10 4 360 356 355 354 354 352 351 350 351 357 359 19 49 76 95 114 143 62 73 307 326 325 332 358 348 359 186 224 235 250 278 288 321 330 329 328 311 292
16 13 14 10 17 14 14 12 5 359 356 355 354 352 352 351 352 350 356 358 5 31 72 95 63 77 63 49 316 333 353 305 304 290 258 204 216 194 5 310 277 219 297 295 284 332 318
22 14 8 8 10 16 12 11 5 1 356 353 355 353 353 351 350 351 345 353 343 346 9 55 43 50 93 326 329 12 348 339 327 329 241 252 219 288 349 320 339 310 358 359 9 18 345
6 14 0 5 9 13 11 10 5 0 357 352 352 355 353 351 342 349 336 342 8 301 353 338 50 83 30 345 18 336 15 336 312 330 38 72 69 64 13 0 336 39 352 347 338 359 351
359 4 5 358 3 11 10 8 6 357 357 352 349 353 351 351 337 351 343 35 9 45 5 43 72 63 358 346 354 342 355 18 347 333 30 28 50 61 23 38 9 313 328 313 318 6 53
352 1 3 3 359 6 6 6 3 358 356 352 346 351 349 353 346 2 31 24 24 18 28 89 56 103 260 321 21 346 335 22 5 35 37 10 60 41 41 61 157 214 265 272 311 350 103
204 357 13 358 352 359 2 4 6 358 355 353 346 344 347 349 43 21 67 75 75 164 85 77 87 48 356 93 39 5 360 61 24 39 17 40 47 329 107 66 56 31 33 313 293 315 321
263 355 10 1 4 346 355 0 4 359 355 351 347 342 346 354 139 48 73 33 324 346 96 44 75 28 356 110 39 2 20 38 49 30 36 81 322 332 67 34 22 339 191 271 252 289 262
223 289 29 353 9 345 350 0 360 359 354 351 350 347 351 25 63 153 58 317 348 24 90 332 354 1 352 106 40 2 3 70 34 20 8 58 332 29 70 51 15 286 284 312 301 337 287
217 211 44 5 9 340 354 358 356 357 352 352 352 348 2 45 139 50 286 331 340 50 32 348 6 315 351 79 244 358 7 36 69 35 63 289 327 351 71 349 322 249 298 277 281 267 40
205 187 145 11 16 349 348 359 354 354 352 352 349 341 350 17 50 341 334 27 57 62 285 344 24 10 35 29 40 88 22 31 58 66 28 329 282 57 351 333 263 298 310 296 275 106 34
194 180 176 220 29 358 342 2 352 354 352 348 344 339 7 73 294 325 64 59 34 88 339 354 339 24 55 10 17 36 68 45 32 18 20 331 328 355 48 348 324 345 17 328 337 347 239
199 180 182 174 60 358 344 360 353 354 354 342 339 346 333 160 268 122 77 63 85 146 26 10 347 330 79 15 33 19 71 59 27 30 62 19 324 3 344 250 282 289 212 225 302 282 279
196 178 189 176 65 315 7 7 352 354 357 341 357 14 13 280 270 111 80 55 128 151 145 8 358 67 32 7 52 41 80 46 43 22 114 23 265 319 335 353 2 315 36 285 280 285 319
188 176 188 192 83 288 38 11 355 353 352 346 74 57 296 336 86 69 72 111 121 96 95 73 112 82 78 14 37 42 32 335 343 14 187 276 318 259 319 360 25 71 330 26 9 309 290
189 176 172 167 191 305 44 18 360 354 348 87 61 53 265 343 64 50 96 126 118 109 108 111 157 105 92 73 97 37 2 87 353 331 21 57 139 295 357 21 331 356 12 357 177 8 296
186 179 167 180 222 323 40 23 8 358 355 58 90 39 303 31 57 53 103 133 109 106 53 57 85 93 112 110 81 121 133 49 347 332 16 227 188 272 339 57 86 71 147 123 123 304 306
186 182 171 173 215 330 33 24 10 3 41 103 93 271 328 81 122 112 103 79 88 103 54 95 113 88 75 110 89 91 127 116 32 31 61 303 317 339 298 279 231 67 46 255 211 105 237
192 184 176 175 202 307 26 27 3 357 20 94 90 34 344 46 71 122 126 142 120 40 73 68 108 76 80 81 55 201 54 92 32 9 19 113 158 172 205 237 104 27 8 344 233 111 265
192 183 184 182 192 177 26 29 1 349 15 95 47 212 228 122 9 100 97 128 141 148 93 62 61 120 143 117 53 173 52 353 60 3 39 77 193 64 357 10 74 138 322 329 329 221 183
183 186 189 187 192 162 62 37 360 350 88 80 133 135 29 87 77 89 21 207 147 129 127 184 139 147 151 150 180 196 133 132 205 338 62 7 259 89 321 278 133 272 253 279 241 237 283
180 182 192 188 180 180 134 50 354 354 93 112 154 62 102 174 120 96 204 169 174 124 7 102 149 114 117 161 140 157 145 107 151 125 65 69 100 68 276 292 64 344 224 215 257 204 164
177 179 188 183 171 176 149 66 42 27 148 127 161 106 98 194 131 171 152 115 143 144 145 176 109 108 135 102 84 53 52 68 67 24 136 128 93 98 227 34 10 239 220 173 223 249 219
175 181 180 175 169 169 150 105 79 63 144 95 96 120 124 125 140 123 135 114 80 49 101 132 111 140 130 105 77 54 347 25 348 222 5 104 112 70 133 190 288 333 204 178 134 280 200
178 177 174 169 168 172 153 127 109 94 100 89 70 81 104 123 235 131 132 159 144 137 25 107 62 131 117 127 102 140 190 171 281 336 112 86 83 116 60 133 217 234 217 147 111 303 208
173 173 164 163 172 176 160 139 119 109 105 104 77 32 93 106 257 133 164 170 136 114 129 135 174 108 77 126 116 157 212 169 191 182 192 22 6 152 174 217 286 217 148 131 79 239 196
177 164 152 162 177 183 161 142 127 124 112 82 89 9 108 103 2 17 165 135 115 152 147 195 80 294 70 139 153 182 138 208 113 203 189 166 142 201 78 61 290 148 86 161 212 248 186
168 153 154 169 179 160 151 150 139 134 131 107 96 90 70 75 120 54 94 174 165 177 127 350 169 164 176 101 170 114 155 146 147 244 339 296 188 181 178 213 227 197 200 215 165 176 210